Temperature
17 18 18 18 18 17 17 17 17 18 18 18 18 18 18 18 18 18 18 18 18 18 18 18 18 18 18 18 18 18 18 18 18 18 18 18 18 18 18 18 18 18 18
18 18 18 18 17 17 17 17 17 18 18 17 18 18 18 18 18 18 18 18 18 18 18 18 18 18 18 18 18 18 18 18 18 18 18 18 18 18 18 18 18 18 18
18 17 18 17 17 17 17 17 17 17 17 17 17 17 17 18 18 17 18 18 18 18 18 18 18 18 18 18 18 18 18 18 18 18 18 18 18 18 18 18 18 18 18
17 17 17 17 17 17 17 17 17 17 17 17 17 17 17 17 17 17 17 17 17 17 17 17 17 18 18 18 18 18 18 18 17 17 17 17 18 18 18 18 18 18 18
17 17 17 17 17 17 17 17 17 17 17 17 17 17 17 17 17 17 17 17 17 17 17 17 17 17 17 18 17 17 17 17 17 17 17 17 17 18 18 18 17 17 17
17 17 17 17 17 17 17 17 17 17 17 17 17 17 17 17 17 17 17 17 17 17 17 17 17 17 17 17 17 17 17 17 17 17 17 17 17 17 17 17 17 17 17
17 17 17 17 17 17 17 17 17 17 17 17 17 17 17 17 17 17 17 17 17 17 17 17 17 17 17 17 17 17 17 17 17 17 17 17 17 17 17 17 17 17 17
18 17 18 17 17 17 17 17 17 17 17 17 17 17 17 17 17 17 17 17 17 17 17 17 17 17 17 17 17 17 17 17 17 17 17 17 17 17 17 17 17 17 17
18 17 17 17 17 17 17 17 17 17 17 17 17 17 17 17 17 17 17 17 17 17 17 17 17 17 17 17 17 17 17 17 17 16 16 16 17 17 17 17 17 17 17
18 18 17 17 17 17 17 17 17 17 17 17 17 16 16 16 16 16 16 16 16 16 16 16 17 17 17 17 16 17 16 16 16 16 16 16 16 16 16 16 16 16 16
18 18 18 18 17 17 17 17 17 17 17 16 16 16 16 16 16 16 16 16 16 16 16 16 16 16 16 16 16 16 16 16 16 16 16 16 16 16 16 16 16 16 16
18 18 18 18 18 18 17 17 17 17 16 16 16 16 16 16 16 16 16 16 16 16 16 16 16 16 16 16 16 16 16 16 16 16 16 16 16 16 16 16 16 16 16
18 18 18 18 18 18 17 17 17 17 16 16 16 16 16 16 16 16 16 16 16 16 16 16 16 16 16 16 16 16 16 16 16 16 16 16 16 16 16 16 16 16 16
19 18 18 18 18 18 17 17 17 16 16 16 16 16 16 16 16 16 16 16 16 16 16 16 16 16 16 16 16 16 16 16 15 15 16 15 15 16 16 16 15 15 15
19 18 18 18 18 18 17 17 17 17 16 16 16 16 16 16 16 16 16 15 16 16 16 15 16 16 16 15 15 15 15 15 15 15 15 15 15 15 15 15 15 15 15
19 18 18 18 18 18 17 17 17 17 16 16 16 16 16 16 16 16 15 15 15 15 15 15 15 15 15 15 15 15 15 15 15 15 15 15 15 15 15 15 15 15 15
19 19 18 18 18 18 17 17 17 17 16 16 16 16 16 16 16 16 15 15 15 15 15 15 15 15 15 15 15 15 15 15 15 15 15 15 15 15 15 15 15 15 15
19 19 18 18 18 17 17 17 17 16 16 16 16 16 16 16 16 15 15 15 15 15 15 15 15 15 15 15 15 15 15 15 15 14 14 14 14 14 14 14 14 14 14
19 18 18 18 17 17 17 17 16 16 16 16 16 16 16 16 15 15 15 15 15 15 15 15 14 14 15 15 15 15 15 14 14 14 14 14 14 14 14 14 14 14 14
18 18 18 17 17 17 17 16 16 16 16 16 16 15 15 15 15 15 15 15 15 15 14 14 14 14 14 14 14 14 14 14 14 14 14 14 14 14 14 14 14 13 14
18 18 17 17 17 17 16 16 16 16 16 16 15 15 15 15 15 15 15 15 15 14 14 14 14 14 14 14 14 14 14 14 14 14 14 14 14 13 13 13 13 13 13
18 18 17 17 17 16 16 16 16 15 15 15 15 15 15 15 15 14 14 14 14 14 14 14 14 14 14 14 14 14 14 14 14 14 14 13 13 13 13 13 13 13 13
17 17 17 17 17 16 16 16 16 15 15 15 15 15 15 15 15 14 14 14 14 14 14 14 13 13 14 14 14 14 14 14 13 14 14 13 13 13 13 13 13 12 12
17 17 17 17 17 16 16 16 15 15 15 15 15 15 15 14 14 14 14 14 14 14 14 13 13 13 13 13 13 13 13 13 13 13 13 13 13 13 13 13 13 12 12
17 17 17 17 17 16 16 16 15 15 15 15 15 15 14 14 14 14 14 14 14 13 13 13 13 13 13 13 13 13 13 13 13 13 13 13 13 13 13 12 12 12 12
17 17 16 16 16 16 16 16 15 15 15 15 14 14 14 14 14 14 14 14 14 13 13 13 13 13 13 13 13 13 13 13 13 13 13 13 12 12 12 12 12 12 12
Wind_Speed
7 9 11 11 11 12 12 12 12 13 13 13 13 14 14 14 15 15 15 15 15 14 13 12 12 12 12 11 11 11 10 9 9 10 11 12 12 12 12 11 10 10 11
9 11 12 10 11 12 12 12 13 13 13 13 14 14 14 14 15 15 15 15 15 15 15 14 13 12 11 11 11 10 10 8 7 8 9 11 12 11 11 12 12 10 11
10 12 12 11 11 12 12 12 12 13 13 13 14 14 14 15 14 14 14 14 15 15 15 14 13 12 12 11 11 10 9 8 6 6 6 8 10 11 11 11 11 10 10
11 12 11 11 11 12 11 12 12 12 12 13 13 13 14 14 14 14 14 14 15 15 15 14 13 13 12 11 10 9 8 8 7 7 7 9 10 10 10 11 11 10 10
12 13 11 11 11 11 12 12 12 12 12 12 13 13 13 14 14 14 14 14 14 14 14 13 13 12 12 11 10 9 8 8 8 8 10 12 10 11 11 11 11 11 11
11 13 12 11 11 11 12 12 12 12 12 12 12 12 13 13 13 13 13 13 13 13 13 13 12 12 11 10 9 9 8 8 9 9 11 11 10 11 11 10 11 11 11
10 12 12 11 10 11 11 12 12 11 11 11 12 12 12 12 13 13 13 13 13 12 12 12 12 11 11 10 9 9 8 8 8 9 11 11 11 11 11 11 10 10 10
10 11 12 11 11 11 11 12 11 11 11 11 11 10 11 11 11 11 12 12 12 12 12 11 11 10 9 9 9 9 9 9 8 9 10 10 11 11 11 11 10 10 10
8 9 10 11 11 11 11 11 11 10 10 9 9 9 9 9 10 10 11 11 11 11 10 9 9 8 8 8 8 8 9 10 9 8 9 9 10 10 10 10 10 10 9
6 6 7 10 11 10 10 10 10 9 8 8 7 7 6 7 9 9 10 10 9 8 8 7 7 6 6 5 5 5 6 7 9 10 9 9 10 9 9 9 9 9 8
5 4 6 6 8 9 10 9 8 8 7 6 5 5 4 5 7 7 8 8 7 6 5 4 4 3 2 2 2 4 4 6 9 10 9 9 9 9 9 9 9 8 7
5 5 5 4 6 7 8 8 6 6 5 4 4 5 4 6 6 7 7 6 4 3 2 2 1 1 0 1 1 3 4 7 8 9 9 10 9 9 8 9 9 9 8
6 5 5 4 5 6 4 4 4 4 4 4 5 5 6 6 5 5 4 3 2 2 2 2 1 1 2 4 4 4 6 7 9 9 10 10 9 9 9 8 9 9 9
6 6 5 5 4 5 5 3 3 3 2 3 3 4 4 2 2 2 2 2 2 2 2 2 2 3 5 5 5 6 7 7 9 8 9 11 10 10 10 10 10 10 9
6 6 5 4 5 5 4 2 3 3 3 3 3 4 4 2 2 2 2 2 3 3 3 3 4 5 5 5 6 6 6 7 8 8 8 10 11 11 10 10 10 10 9
6 6 4 4 5 5 3 2 3 3 3 4 3 3 4 4 2 2 2 2 2 4 4 4 4 4 3 3 4 5 6 6 6 7 9 9 10 10 10 10 10 9 9
6 6 5 4 4 4 3 3 3 3 4 3 3 3 4 5 5 3 3 3 3 4 4 4 4 4 3 3 4 3 4 5 5 6 7 8 8 9 9 9 9 9 8
5 6 6 4 4 3 3 4 3 4 4 3 4 3 3 5 6 4 3 2 3 4 3 2 2 2 3 3 2 2 3 3 4 4 6 7 7 7 7 8 8 8 8
4 5 6 4 4 4 3 3 3 3 3 3 3 3 4 5 6 5 3 2 4 3 2 2 3 3 3 3 2 1 1 2 2 3 4 6 7 7 6 6 7 7 7
4 4 5 5 5 4 3 3 3 3 2 3 2 3 4 5 5 4 2 3 3 2 3 3 3 3 1 1 2 2 1 1 2 2 3 4 5 5 6 5 6 5 5
3 3 4 5 4 4 2 2 2 2 2 1 1 2 3 3 4 3 2 2 2 2 2 2 2 2 2 2 2 2 1 1 2 1 2 2 3 4 4 4 4 5 5
3 3 4 4 4 4 3 2 2 2 1 2 1 2 3 3 3 2 2 1 1 1 1 2 2 1 1 1 1 1 1 1 2 0 1 1 2 2 2 3 4 4 5
3 2 2 3 4 3 3 2 2 2 1 1 1 1 1 2 2 2 2 1 1 1 0 1 1 0 1 2 1 1 1 1 1 1 0 1 2 1 1 3 3 4 5
3 3 2 3 4 4 4 3 3 2 1 2 1 1 1 2 2 2 2 2 1 1 0 0 1 0 0 1 2 2 1 0 1 1 1 1 1 1 1 1 3 4 5
3 2 2 2 2 4 3 3 3 2 2 1 1 2 1 1 1 2 1 1 1 0 0 0 1 1 1 1 1 1 1 1 1 1 1 1 1 1 0 1 2 3 5
3 2 2 2 2 3 3 3 3 2 2 2 1 2 1 1 1 1 1 0 0 0 1 1 1 1 1 1 1 1 0 1 1 1 1 1 1 1 1 1 1 2 4
Wind_Direction
83 81 70 63 63 65 64 63 65 64 61 61 61 59 59 60 62 63 63 63 62 62 68 75 76 76 76 76 73 70 67 67 69 70 70 68 66 65 62 63 64 64 70
95 87 74 66 66 68 66 66 66 66 62 63 63 60 60 62 64 64 65 65 64 65 71 74 73 74 76 76 73 69 64 61 67 70 75 72 70 65 64 63 64 67 70
96 92 78 69 69 69 67 67 67 68 66 65 65 63 62 63 65 66 66 66 66 67 69 71 70 70 71 72 70 65 58 50 49 54 63 80 76 69 69 67 66 69 71
92 89 80 75 73 72 70 70 70 70 69 68 66 65 64 65 66 67 67 67 67 68 68 69 68 68 67 66 64 59 51 43 38 37 57 71 71 71 71 68 67 67 69
90 90 87 82 79 77 74 72 73 72 70 68 67 67 67 67 67 68 67 68 68 67 66 66 64 64 63 61 57 50 44 40 39 50 68 71 69 69 70 68 67 65 68
98 99 96 90 86 82 80 77 77 74 72 70 69 69 69 69 69 70 69 69 68 68 66 64 62 61 59 56 51 44 38 34 48 60 70 73 71 68 69 70 70 69 70
106 106 109 103 97 91 86 82 80 76 73 72 71 72 71 70 71 72 71 71 70 69 68 66 61 58 54 50 45 39 35 35 62 67 73 75 75 72 70 69 70 71 70
112 112 114 112 105 99 93 87 84 80 78 76 75 75 74 74 76 77 75 74 72 70 69 66 62 59 53 45 40 35 30 34 57 72 79 78 80 76 73 71 68 69 67
105 120 124 124 115 108 103 97 93 88 85 84 81 80 79 79 80 80 79 76 73 71 69 67 65 61 56 48 41 36 32 32 45 63 76 76 78 76 75 73 69 69 69
103 118 123 124 126 123 118 111 107 101 95 95 93 89 84 88 91 87 83 81 77 73 70 68 66 61 56 46 40 30 29 37 63 62 67 71 74 74 73 73 70 70 70
112 113 111 115 122 126 121 116 119 118 116 113 110 106 101 90 92 92 84 89 85 80 71 70 74 66 56 33 35 27 38 71 73 67 62 70 72 71 70 68 69 66 64
130 117 109 114 112 107 107 121 127 122 128 125 100 99 94 80 77 83 95 97 88 86 69 69 66 16 351 95 67 44 54 70 81 74 66 73 72 71 71 69 69 63 63
127 116 111 107 104 101 99 109 106 109 117 103 91 81 83 83 87 95 108 105 101 83 60 31 12 12 61 70 63 69 63 67 74 76 71 74 75 73 71 69 67 65 65
127 118 112 112 108 102 96 96 106 103 94 90 95 91 92 88 82 78 98 96 74 59 48 34 32 34 48 56 59 58 58 67 82 88 80 77 77 74 72 68 65 64 64
124 125 122 116 105 94 94 105 98 98 96 89 83 87 91 96 93 77 71 69 60 50 32 27 35 32 31 35 47 57 58 59 80 93 91 86 84 78 74 69 65 62 61
138 135 121 120 114 116 118 105 95 86 97 89 79 73 88 95 93 90 68 53 54 55 43 38 38 35 23 36 39 46 57 57 67 94 106 94 88 82 76 71 65 62 64
139 135 123 123 112 117 108 98 92 91 88 76 76 71 73 77 78 73 63 53 44 51 53 45 36 39 29 34 41 46 61 60 58 78 98 102 94 85 79 74 67 64 67
131 127 122 118 110 101 95 92 83 85 83 77 67 59 62 77 79 76 66 56 51 53 52 37 28 33 28 26 24 42 58 60 53 70 85 96 93 92 88 80 75 71 69
122 122 124 124 110 97 86 84 76 75 75 78 69 53 39 61 73 73 65 52 54 53 41 30 32 34 28 14 2 74 61 74 65 62 70 87 91 93 99 93 86 78 71
123 121 122 119 113 102 93 87 79 81 77 63 59 59 44 51 64 69 72 62 52 49 37 39 37 25 20 345 342 57 88 110 92 70 63 79 89 96 100 101 104 94 80
105 115 114 126 128 118 107 99 106 107 112 93 71 64 66 62 69 70 55 55 49 58 52 44 47 24 350 346 15 4 358 81 94 107 88 87 92 100 113 107 109 113 100
129 149 134 132 126 125 123 128 126 118 124 109 96 68 69 65 52 62 71 66 48 52 68 55 50 16 328 1 19 3 359 349 336 121 98 92 90 82 85 89 94 103 107
140 146 143 143 133 131 129 120 109 94 77 80 101 87 61 78 78 58 45 64 78 68 111 120 82 93 300 305 358 84 113 230 307 331 7 81 83 65 43 60 75 97 101
147 158 150 145 152 147 143 144 151 151 156 176 161 149 132 72 75 76 49 34 54 64 64 207 141 183 156 298 322 338 307 137 158 253 317 2 76 66 47 43 58 78 86
118 135 140 139 137 142 154 153 170 181 184 161 144 150 150 125 83 74 53 30 34 10 244 242 126 201 215 219 257 290 312 316 271 177 227 300 348 335 41 77 70 79 91
101 93 108 120 131 128 136 155 177 184 177 160 173 165 173 165 173 161 155 173 160 239 250 211 187 215 230 235 252 256 214 275 278 251 222 233 236 279 328 65 91 94 101
Height
1516 1514 1513 1513 1513 1512 1512 1512 1512 1512 1512 1512 1512 1512 1512 1512 1511 1511 1511 1510 1509 1506 1505 1508 1511 1513 1515 1516 1516 1517 1518 1518 1518 1518 1518 1518 1518 1518 1518 1519 1519 1519 1518
1516 1515 1515 1514 1514 1514 1514 1514 1514 1514 1514 1514 1514 1514 1514 1513 1513 1513 1513 1512 1511 1509 1508 1510 1513 1515 1516 1517 1518 1518 1519 1519 1520 1520 1520 1520 1520 1520 1520 1520 1520 1520 1520
1517 1516 1516 1516 1516 1515 1515 1515 1515 1516 1516 1516 1516 1516 1515 1515 1515 1515 1515 1515 1514 1514 1514 1514 1516 1517 1518 1519 1519 1520 1520 1521 1521 1521 1521 1521 1521 1521 1521 1521 1521 1521 1521
1518 1517 1517 1517 1517 1517 1517 1517 1517 1517 1517 1517 1517 1517 1517 1517 1517 1517 1517 1517 1517 1517 1517 1518 1518 1519 1520 1520 1521 1521 1522 1522 1522 1522 1523 1522 1522 1523 1522 1523 1523 1522 1522
1519 1518 1519 1519 1519 1519 1519 1519 1519 1519 1519 1519 1519 1519 1519 1519 1519 1519 1519 1519 1519 1519 1519 1520 1520 1521 1521 1521 1522 1522 1523 1523 1523 1523 1523 1523 1524 1524 1524 1524 1524 1524 1524
1520 1520 1520 1520 1520 1520 1520 1520 1520 1520 1520 1521 1521 1521 1521 1521 1521 1521 1520 1521 1521 1521 1521 1521 1521 1522 1522 1523 1523 1523 1524 1524 1524 1524 1524 1524 1524 1524 1524 1524 1525 1525 1525
1522 1521 1522 1522 1522 1522 1522 1522 1522 1522 1522 1522 1522 1522 1522 1522 1522 1522 1522 1522 1522 1522 1522 1523 1523 1523 1523 1524 1524 1524 1525 1525 1525 1525 1525 1525 1525 1525 1525 1525 1525 1526 1526
1523 1523 1523 1523 1523 1523 1524 1524 1524 1524 1524 1524 1524 1524 1524 1524 1524 1524 1524 1524 1524 1524 1524 1524 1524 1524 1525 1525 1525 1525 1525 1526 1526 1526 1525 1525 1526 1526 1526 1526 1526 1526 1526
1525 1524 1525 1525 1525 1525 1525 1525 1526 1526 1526 1526 1526 1526 1526 1526 1526 1526 1526 1526 1525 1525 1525 1525 1526 1526 1526 1526 1526 1526 1526 1526 1526 1526 1526 1526 1526 1526 1526 1526 1526 1527 1527
1526 1527 1526 1527 1526 1527 1527 1527 1527 1528 1528 1528 1528 1528 1528 1528 1528 1527 1527 1527 1527 1527 1527 1527 1527 1527 1527 1527 1527 1527 1527 1527 1527 1526 1526 1526 1526 1526 1526 1526 1527 1527 1527
1527 1528 1528 1528 1529 1529 1529 1529 1529 1529 1529 1529 1529 1529 1529 1529 1529 1529 1529 1529 1529 1529 1529 1528 1528 1528 1529 1529 1529 1529 1528 1528 1527 1526 1526 1526 1526 1526 1527 1527 1527 1527 1527
1527 1529 1529 1530 1530 1530 1530 1530 1530 1530 1531 1531 1531 1531 1531 1531 1531 1531 1530 1530 1530 1530 1530 1530 1530 1530 1530 1530 1530 1530 1529 1529 1528 1527 1526 1526 1526 1526 1527 1527 1527 1527 1528
1528 1529 1530 1530 1531 1531 1531 1531 1532 1532 1532 1532 1532 1532 1532 1532 1532 1532 1532 1531 1531 1531 1531 1531 1531 1531 1531 1531 1531 1530 1530 1530 1529 1528 1527 1527 1526 1527 1527 1527 1527 1527 1527
1528 1529 1530 1530 1531 1532 1532 1532 1532 1532 1533 1533 1533 1533 1533 1533 1533 1533 1533 1532 1532 1532 1532 1532 1532 1532 1532 1532 1532 1531 1531 1530 1529 1529 1528 1528 1527 1527 1527 1527 1527 1527 1527
1528 1529 1530 1531 1531 1532 1532 1533 1533 1533 1533 1533 1534 1534 1534 1534 1534 1534 1533 1533 1533 1533 1533 1532 1532 1532 1532 1532 1532 1531 1531 1531 1530 1529 1529 1529 1528 1528 1528 1527 1527 1527 1527
1528 1529 1530 1531 1531 1532 1532 1533 1533 1533 1534 1534 1534 1535 1535 1535 1534 1534 1534 1534 1533 1533 1533 1533 1532 1532 1532 1532 1532 1531 1531 1531 1531 1530 1530 1529 1529 1529 1528 1528 1528 1527 1527
1527 1528 1529 1531 1531 1532 1532 1533 1533 1534 1534 1534 1535 1535 1535 1535 1535 1534 1534 1534 1534 1533 1533 1532 1532 1532 1532 1532 1532 1531 1531 1531 1531 1531 1530 1530 1529 1529 1529 1528 1528 1527 1527
1526 1527 1529 1530 1531 1532 1532 1533 1533 1534 1534 1534 1535 1535 1535 1535 1535 1534 1534 1534 1533 1533 1533 1532 1532 1532 1532 1531 1531 1531 1531 1531 1531 1531 1531 1530 1530 1529 1529 1528 1528 1527 1527
1525 1526 1528 1529 1530 1531 1532 1532 1533 1533 1534 1534 1534 1535 1535 1535 1535 1534 1534 1534 1533 1533 1533 1532 1532 1532 1531 1531 1531 1531 1531 1531 1531 1531 1531 1531 1530 1530 1529 1528 1528 1527 1527
1525 1526 1527 1528 1529 1530 1531 1532 1532 1533 1534 1534 1534 1534 1534 1534 1534 1534 1533 1533 1533 1532 1532 1532 1531 1531 1531 1531 1531 1531 1531 1531 1531 1531 1531 1531 1530 1530 1529 1528 1528 1527 1526
1524 1525 1526 1527 1527 1528 1530 1531 1532 1532 1533 1533 1534 1534 1534 1534 1534 1533 1533 1533 1532 1532 1531 1531 1531 1531 1531 1530 1530 1530 1531 1531 1531 1531 1531 1531 1530 1530 1529 1529 1528 1527 1526
1522 1524 1525 1526 1527 1527 1528 1530 1531 1532 1532 1533 1533 1533 1533 1533 1533 1533 1533 1532 1531 1531 1531 1530 1530 1530 1530 1530 1530 1530 1531 1531 1531 1530 1531 1530 1530 1529 1529 1528 1528 1527 1526
1520 1522 1523 1525 1526 1526 1527 1528 1530 1530 1531 1532 1532 1532 1532 1532 1532 1532 1532 1531 1531 1530 1530 1529 1529 1529 1529 1530 1530 1531 1530 1530 1530 1530 1530 1530 1529 1529 1528 1528 1527 1526 1525
1519 1520 1522 1523 1524 1525 1526 1527 1528 1528 1529 1530 1531 1531 1531 1531 1531 1531 1531 1530 1530 1529 1529 1528 1528 1528 1528 1528 1529 1529 1530 1529 1529 1529 1529 1528 1528 1528 1527 1527 1526 1526 1525
1517 1518 1520 1521 1522 1523 1524 1525 1526 1527 1528 1529 1529 1530 1530 1530 1530 1530 1529 1529 1528 1528 1527 1527 1527 1527 1527 1527 1527 1527 1528 1528 1528 1528 1527 1527 1527 1527 1526 1526 1525 1525 1524
1515 1516 1518 1519 1520 1521 1522 1523 1524 1525 1526 1527 1527 1528 1528 1528 1528 1528 1528 1527 1527 1527 1526 1526 1525 1525 1525 1525 1525 1526 1526 1526 1526 1526 1526 1525 1525 1525 1525 1525 1525 1524 1523